Weather WX

World > North America > United States > Ohio

Whipple, Ohio Regional Weather

Lat: 39.52N, Lon: 81.41W
Wx Zone: OHZ076
Warning FLW WEATHER ALERT - (More Info. Click Here) Warning
Feedback

Whipple, OH Regional Weather

Expires:201906210000;;810815
ASUS41 KCLE 202312
RWRCLE
OHIO REGIONAL WEATHER ROUNDUP
NATIONAL WEATHER SERVICE WILMINGTON, OH
700 PM EDT THU JUN 20 2019

NOTE: "FAIR" INDICATES FEW OR NO CLOUDS BELOW 12,000 FEET WITH NO
SIGNIFICANT WEATHER AND/OR OBSTRUCTIONS TO VISIBILITY.


OHZ036-037-039>041-045>050-054>059-063>069-073>076-082>088-210000-
  CENTRAL AND SOUTHEAST OHIO
  
CITY           SKY/WX    TMP DP  RH WIND       PRES   REMARKS
COLUMBUS       CLOUDY    68  62  81 W13       29.61R                  
OSU AIRPORT    CLOUDY    67  64  90 W16G29    29.61S                  
BOLTON FIELD   CLOUDY    66  64  94 W20       29.64R                  
RICKENBACK AFB CLOUDY    67  63  85 W17G29    29.63S                  
NEWARK         CLOUDY    69  63  81 W10G23    29.61R                  
MARION         LGT RAIN  66  64  93 N25G33    29.63R VSB 1            
LANCASTER      CLOUDY    68  62  81 W22       29.64R                  
ZANESVILLE     PTSUNNY   72  63  73 W13G21    29.59R                  
NEW PHILLY     CLOUDY    68  65  90 W5        29.58R                  
$$
  

SKY/WX - Weather  TMP - Temperature  DP - Dew Point  RH - Relative Humidity
WIND - Wind Direction/Speed PRES - Barometric Pressure VSB - Visibility
WCI - Wind Chill Index E13G22 Wind - East Wind 13 mph/Gusts of 22 mph